User: anonymous   Login
Location: Clanezzo
(45.7500°N, 9.6000°E)
Time: 00:51:16
(UTC+00:00)
Language:

DIWATA 2B (PO-101) - Orbit

View from above orbital plane
View from above orbital plane
View from above satellite
View from above satellite

Ground track
Ground track

The orbit data is extracted from the following two-line orbital elements,

1 43678U 18084H   22179.44687960  .00000299  00000-0  35106-4 0  9993
2 43678  97.9719 312.8415 0008539 246.2564 113.7768 14.92184620199492
Epoch (UTC): 28 June 2022 10:43:30
Eccentricity: 0.0008539
inclination: 97.9719°
perigee height: 585 km
apogee height: 597 km
right ascension of ascending node: 312.8415°
argument of perigee: 246.2564°
revolutions per day: 14.92184620
mean anomaly at epoch: 113.7768°
orbit number at epoch: 19949

The dashed part of the orbit path shows where the satellite is in the earth's shadow,  

DLR